[[{"header":{"parameterUnit":"m.s-1","parameterCategory":1,"la1":30.2991,"la2":30.254,"lo1":-89.0895,"lo2":-89.0444,"dy":0.0017,"dx":0.0017,"nx":28,"ny":28,"refTime":"2024-12-06T09:00:00:Z","depth":0,"parameterNumber":2,"parameterNumberName":"U-component_of_WINDS"},"data":[0,0,0,0,0,0,0,0,0,0,0,0,0,0,0,0,0,0,0,0,0,0,0,0,0,0,0,0,0,0,0,0,0,0,0,0,0,0,0,0,0,0,0,0,0,0,0,0,0,0,0,0,0,0,0,0,0,0,-2.5572,-2.5572,0,-2.5598,-2.5598,-2.5598,-2.5506,-2.5503,-2.55,-2.5498,-2.5525,-2.5529,-2.5532,0,0,0,0,0,0,0,0,0,0,0,0,0,-2.5443,-2.5446,-2.5572,-2.5572,-2.5573,-2.5598,-2.5598,-2.5598,-2.5506,-2.5503,-2.55,-2.5497,-2.5524,-2.5528,-2.5532,0,0,0,0,0,0,0,0,0,0,0,0,0,-2.5487,-2.5447,-2.5572,-2.553,-2.5526,-2.5598,-2.5598,-2.5598,-2.5507,-2.5503,-2.5499,-2.5495,-2.5523,-2.5528,-2.5533,-2.5646,0,0,-2.5548,-2.555,0,0,0,0,0,0,0,0,-2.5485,-2.5492,-2.5536,-2.5533,-2.5529,-2.5544,-2.5562,-2.5615,-2.5508,-2.5514,-2.5498,-2.5493,-2.5535,-2.5539,-2.5553,-2.5648,-2.5649,-2.5548,-2.5551,-2.5553,-2.5555,0,0,0,0,0,0,0,-2.5482,-2.549,-2.5582,-2.5536,-2.5532,-2.5509,-2.5511,-2.5572,-2.5548,-2.5514,-2.5507,-2.5511,-2.5532,-2.5548,-2.5553,-2.5649,-2.5548,-2.5553,-2.5556,-2.5558,-2.5838,-2.5842,0,0,0,0,0,0,-2.5484,-2.5488,-2.5581,-2.5583,-2.5496,-2.5515,-2.5517,-2.5544,-2.5547,-2.5543,-2.5515,-2.5507,-2.5542,-2.5547,-2.5553,-2.5686,-2.5553,-2.5558,-2.5561,-2.5833,-2.5839,-2.5843,0,0,0,0,0,0,-2.5482,-2.5493,-2.558,-2.5534,-2.5543,-2.5522,-2.5552,-2.5546,-2.5562,-2.5548,-2.5543,-2.5535,-2.5539,-2.5546,-2.5624,-2.5686,-2.556,-2.5565,-2.5828,-2.5835,-2.5841,-2.5954,0,0,0,0,0,0,-2.5478,-2.5493,-2.5536,-2.5535,-2.5546,-2.5651,-2.5556,-2.555,-2.5571,-2.556,-2.5566,-2.5563,-2.5536,-2.5617,-2.5629,-2.5691,-2.5569,-2.5822,-2.5831,-2.5839,-2.5944,-2.5963,-2.598,0,0,0,0,0,-2.5474,-2.5567,-2.5539,-2.5551,-2.5599,-2.5654,-2.566,-2.5628,-2.5576,-2.5619,-2.561,-2.5562,-2.5677,-2.5625,-2.5638,-2.5702,-2.5818,-2.5829,-2.5838,-2.5936,-2.596,-2.5979,0,0,0,0,0,0,-2.5577,-2.5566,-2.5535,-2.563,-2.5644,-2.5639,-2.5692,-2.5653,-2.5682,-2.5672,-2.563,-2.5632,-2.5716,-2.5717,-2.566,-2.5812,-2.5739,-2.5752,-2.5809,-2.5831,-2.5848,-2.5847,-2.5573,0,0,0,0,0,-2.561,-2.5655,-2.5644,-2.573,-2.5738,-2.5714,-2.5737,-2.571,-2.5723,-2.5728,-2.5724,-2.5738,-2.5777,-2.5804,-2.5839,-2.5943,-2.5943,-2.5994,-2.6012,-2.6026,-2.6038,-2.6093,-2.6116,-2.5876,-2.5876,-2.5876,0,0,-2.568,-2.568,-2.5712,-2.575,-2.5757,-2.5805,-2.5719,-2.5774,-2.5809,-2.5736,-2.5809,-2.5807,-2.5819,-2.5911,-2.5951,-2.5914,-2.6104,-2.6039,-2.6051,-2.6055,-2.6106,-2.6128,-2.6149,-2.5883,-2.5882,-2.5881,0,0,-2.5833,-2.5837,-2.5909,-2.5917,-2.5929,-2.5912,-2.593,-2.593,-2.5926,-2.5998,-2.5944,-2.5985,-2.6053,-2.6064,-2.6079,-2.6234,-2.6192,-2.6247,-2.634,-2.6394,-2.6413,-2.6429,-2.6485,-2.6505,-2.6259,-2.6259,-2.6259,0,-2.5919,-2.5989,-2.5951,-2.6008,-2.6027,-2.5962,-2.6034,-2.6044,-2.6068,-2.6082,-2.604,-2.6123,-2.6127,-2.622,-2.6258,-2.6272,-2.629,-2.6247,-2.6413,-2.6429,-2.6444,-2.6496,-2.6517,-2.6266,-2.6265,-2.6264,-2.6263,0,-2.6094,-2.6143,-2.6199,-2.6222,-2.6247,-2.6312,-2.6283,-2.6313,-2.6284,-2.6271,-2.6345,-2.6348,-2.6382,-2.6402,-2.6374,-2.6491,-2.6467,-2.642,-2.6345,-2.6474,-2.6523,-2.6542,-2.6275,-2.6273,-2.6271,-2.6269,0,0,-2.6313,-2.6313,-2.6334,-2.6344,-2.6351,-2.6389,-2.645,-2.6483,-2.6509,-2.6527,-2.6577,-2.6636,-2.6591,-2.6608,-2.6581,-2.6629,-2.6751,-2.6575,-2.6574,-2.6608,-2.688,-2.6916,-2.694,-2.6723,-2.6726,-2.6729,-2.6879,0,-2.6463,-2.6568,-2.6535,-2.6641,-2.6686,-2.6624,-2.6677,-2.6688,-2.6678,-2.6714,-2.6703,-2.6745,-2.6683,-2.6693,-2.6737,-2.6727,-2.6805,-2.6716,-2.677,-2.6772,-2.677,-2.6965,-2.7004,-2.7146,-2.6898,-2.6901,-2.6903,0,-2.6652,-2.6677,-2.6787,-2.6786,-2.6804,-2.6853,-2.688,-2.6915,-2.6925,-2.6915,-2.6933,-2.6896,-2.6955,-2.688,-2.6962,-2.6902,-2.6922,-2.692,-2.6925,-2.693,-2.6846,-2.6976,-2.719,-2.7211,-2.6933,-2.693,-2.6928,0,-2.6802,-2.6862,-2.6936,-2.6946,-2.6946,-2.6982,-2.6984,-2.699,-2.7012,-2.7035,-2.7049,-2.7079,-2.7096,-2.7121,-2.7093,-2.704,-2.7179,-2.7101,-2.7172,-2.7173,-2.7205,-2.7204,-2.7426,-2.7217,-2.7217,-2.7216,-2.7216,0,-2.6973,-2.7044,-2.7003,-2.7049,-2.7125,-2.7086,-2.7163,-2.7158,-2.7163,-2.7207,-2.7155,-2.7197,-2.7157,-2.7195,-2.7173,-2.7245,-2.7253,-2.7246,-2.7239,-2.7251,-2.7252,-2.7264,-2.7254,-2.7222,-2.7221,-2.722,-2.7219,0,-2.7154,-2.7129,-2.7206,-2.72,-2.72,-2.7256,-2.7251,-2.7293,-2.7278,-2.7334,-2.7345,-2.7322,-2.7364,-2.7338,-2.7381,-2.7366,-2.746,-2.7439,-2.7457,-2.7451,-2.7524,-2.7518,-2.7762,-2.7793,-2.7564,-2.7566,-2.7568,0,-2.7266,-2.7318,-2.7317,-2.7342,-2.7347,-2.7388,-2.741,-2.7373,-2.7397,-2.7412,-2.7452,-2.749,-2.7518,-2.7588,-2.7576,-2.7608,-2.7589,-2.7672,-2.7594,-2.7603,-2.7591,-2.7588,-2.7594,-2.7689,-2.7691,-2.7694,-2.7695,0,-2.7466,-2.7451,-2.7484,-2.7513,-2.7539,-2.756,-2.7577,-2.76,-2.7563,-2.7593,-2.7635,-2.7657,-2.77,-2.7738,-2.7765,-2.7767,-2.7726,-2.772,-2.7738,-2.7751,-2.7759,-2.7756,-2.7501,-2.7715,-2.7713,-2.7711,-2.771,-2.771,-2.7616,-2.766,-2.7666,-2.7704,-2.7712,-2.7728,-2.7767,-2.7757,-2.7791,-2.7823,-2.7799,-2.7849,-2.7857,-2.7889,-2.7896,-2.7934,-2.7901,-2.7927,-2.7934,-2.7941,-2.7951,-2.7752,-2.7939,-2.7938,-2.7938,-2.7937,-2.7937,0,-2.7815,-2.7815,-2.785,-2.7875,-2.7904,-2.7861,-2.7877,-2.7905,-2.7949,-2.796,-2.7988,-2.8037,-2.8073,-2.8063,-2.8095,-2.8128,-2.811,-2.8138,-2.8136,-2.8137,-2.7979,-2.7961,-2.8152,-2.8152,-2.8152,-2.8152,-2.8152,-2.8152,-2.7922,-2.7993,-2.7978,-2.8053,-2.8052,-2.8101,-2.8113,-2.8128,-2.8136,-2.8192,-2.8222,-2.8215,-2.8217,-2.8249,-2.828,-2.8276,-2.8291,-2.8326,-2.8316,-2.8169,-2.8148,-2.8128,-2.811,-2.833,-2.833,-2.847,-2.8471,-2.8472]},{"header":{"parameterUnit":"m.s-1","parameterCategory":1,"la1":30.2991,"la2":30.254,"lo1":-89.0895,"lo2":-89.0444,"dy":0.0017,"dx":0.0017,"nx":28,"ny":28,"refTime":"2024-12-06T09:00:00:Z","depth":0,"parameterNumber":3,"parameterNumberName":"V-component_of_WINDS"},"data":[0,0,0,0,0,0,0,0,0,0,0,0,0,0,0,0,0,0,0,0,0,0,0,0,0,0,0,0,0,0,0,0,0,0,0,0,0,0,0,0,0,0,0,0,0,0,0,0,0,0,0,0,0,0,0,0,0,0,0.2288,0.2287,0,0.2229,0.2229,0.2228,0.2205,0.2205,0.2206,0.2206,0.2144,0.2142,0.214,0,0,0,0,0,0,0,0,0,0,0,0,0,0.2378,0.2376,0.2288,0.2287,0.2286,0.223,0.2229,0.2228,0.2205,0.2205,0.2206,0.2206,0.2144,0.2142,0.214,0,0,0,0,0,0,0,0,0,0,0,0,0,0.2331,0.2376,0.2288,0.2268,0.2266,0.223,0.2229,0.2228,0.2205,0.2205,0.2206,0.2206,0.2145,0.2142,0.214,0.2118,0,0,0.2132,0.213,0,0,0,0,0,0,0,0,0.2334,0.2328,0.2272,0.2269,0.2267,0.2225,0.2238,0.2191,0.2205,0.2228,0.2206,0.2206,0.217,0.2166,0.2154,0.2116,0.2113,0.2131,0.213,0.2129,0.2128,0,0,0,0,0,0,0,0.2337,0.233,0.2265,0.2271,0.2268,0.2262,0.2255,0.2229,0.2199,0.2226,0.2224,0.2218,0.2169,0.2157,0.2153,0.2112,0.2131,0.2129,0.2127,0.2126,0.2054,0.2053,0,0,0,0,0,0,0.2344,0.2333,0.2266,0.2263,0.2302,0.226,0.2253,0.2238,0.2199,0.2193,0.2218,0.2217,0.2161,0.2156,0.215,0.2123,0.2129,0.2126,0.2125,0.2054,0.2054,0.2053,0,0,0,0,0,0,0.2346,0.2338,0.2269,0.2297,0.2288,0.2258,0.2242,0.2237,0.2224,0.2193,0.2187,0.2211,0.2161,0.2154,0.2127,0.212,0.2125,0.2122,0.2054,0.2054,0.2053,0.2068,0,0,0,0,0,0,0.2348,0.2339,0.2331,0.2297,0.2287,0.2247,0.2241,0.2235,0.222,0.2219,0.2184,0.2179,0.2161,0.2131,0.2124,0.2117,0.212,0.2055,0.2054,0.2054,0.2068,0.2068,0.2068,0,0,0,0,0,0.2352,0.2336,0.233,0.2322,0.2276,0.2246,0.224,0.222,0.222,0.2211,0.2191,0.218,0.2123,0.2128,0.2121,0.2112,0.2055,0.2054,0.2054,0.2068,0.2068,0.2068,0,0,0,0,0,0,0.2368,0.2331,0.2324,0.2298,0.2276,0.2243,0.2231,0.2221,0.2198,0.2197,0.2173,0.2165,0.214,0.2123,0.2131,0.209,0.2088,0.2086,0.2102,0.2101,0.2102,0.2106,0.2118,0,0,0,0,0,0.2369,0.2349,0.2317,0.2297,0.2286,0.2261,0.2247,0.2234,0.2209,0.22,0.2177,0.2153,0.213,0.2115,0.2091,0.2066,0.2058,0.2056,0.2057,0.2057,0.2055,0.204,0.2039,0.2051,0.2051,0.2051,0,0,0.237,0.2347,0.2336,0.23,0.2281,0.226,0.2253,0.2231,0.2215,0.2196,0.2169,0.2152,0.2124,0.2098,0.2085,0.2083,0.205,0.2056,0.2056,0.2054,0.204,0.2039,0.2038,0.205,0.2051,0.2051,0,0,0.2361,0.2342,0.2323,0.2305,0.2277,0.226,0.2256,0.2225,0.2213,0.2186,0.2172,0.2152,0.2112,0.2093,0.2078,0.2064,0.2053,0.2057,0.2057,0.2044,0.2043,0.2042,0.2037,0.2035,0.2055,0.2055,0.2055,0,0.2365,0.2334,0.2314,0.2294,0.2278,0.2262,0.2243,0.2226,0.2191,0.2181,0.218,0.213,0.211,0.2079,0.2076,0.2064,0.2058,0.206,0.2045,0.2043,0.2042,0.2037,0.2035,0.2056,0.2056,0.2056,0.2056,0,0.2341,0.2319,0.2307,0.2276,0.2259,0.2239,0.2217,0.2203,0.2191,0.2175,0.2148,0.2123,0.2095,0.2087,0.2075,0.2055,0.2055,0.2049,0.2047,0.2042,0.2037,0.2035,0.2057,0.2057,0.2056,0.2056,0,0,0.2338,0.2298,0.2294,0.228,0.2249,0.2232,0.2211,0.2185,0.2173,0.215,0.2132,0.21,0.2095,0.2078,0.2064,0.2053,0.2043,0.2049,0.2048,0.2048,0.2019,0.2023,0.2021,0.2036,0.2036,0.2036,0.2021,0,0.2325,0.2289,0.2271,0.2242,0.2222,0.2207,0.219,0.2168,0.2153,0.2133,0.2116,0.2093,0.2089,0.2079,0.2066,0.2047,0.2037,0.2048,0.2019,0.2018,0.2026,0.2018,0.2022,0.201,0.2019,0.2019,0.2019,0,0.2304,0.2283,0.2252,0.2224,0.2215,0.22,0.2175,0.2156,0.2132,0.2122,0.2104,0.2091,0.2069,0.2069,0.2038,0.2046,0.2034,0.2022,0.2021,0.2017,0.2018,0.2013,0.2005,0.2003,0.2015,0.2015,0.2016,0,0.2306,0.2269,0.2246,0.2235,0.2202,0.2191,0.2177,0.2153,0.2139,0.2117,0.2107,0.2083,0.2069,0.205,0.2031,0.2033,0.2002,0.2,0.1992,0.1993,0.1986,0.1986,0.1975,0.1979,0.1979,0.1979,0.1979,0,0.2292,0.2274,0.2247,0.2233,0.2212,0.2193,0.2172,0.2157,0.2136,0.2119,0.2104,0.2088,0.2064,0.2044,0.2029,0.2006,0.2,0.1991,0.1987,0.1992,0.1993,0.1982,0.1982,0.1978,0.1978,0.1979,0.1979,0,0.229,0.2271,0.2245,0.2217,0.2209,0.2195,0.2171,0.2156,0.2141,0.2119,0.2113,0.2088,0.2064,0.2044,0.2012,0.2002,0.1979,0.1974,0.1987,0.1985,0.1978,0.1979,0.1959,0.1955,0.1962,0.1962,0.1962,0,0.2282,0.2268,0.2238,0.2226,0.2212,0.2193,0.2178,0.2159,0.2145,0.2117,0.2106,0.2082,0.2062,0.2025,0.2004,0.198,0.1974,0.1969,0.197,0.1976,0.1974,0.1975,0.1973,0.1969,0.1969,0.1969,0.1969,0,0.227,0.2262,0.2242,0.2219,0.2203,0.2184,0.2164,0.2155,0.2132,0.2117,0.2094,0.2078,0.2047,0.2023,0.1997,0.1982,0.1971,0.1969,0.1966,0.197,0.1978,0.1974,0.1987,0.1969,0.1969,0.1969,0.1969,0.1969,0.2264,0.2251,0.2229,0.2208,0.2192,0.2174,0.216,0.2143,0.2123,0.2097,0.2087,0.2063,0.2041,0.2005,0.199,0.1971,0.1969,0.1964,0.1963,0.1962,0.1963,0.1982,0.1966,0.1966,0.1966,0.1966,0.1966,0,0.2251,0.2237,0.2217,0.2191,0.2175,0.2168,0.2147,0.2133,0.2113,0.2093,0.2074,0.2047,0.2024,0.2002,0.1978,0.1967,0.1962,0.1961,0.1962,0.1958,0.1966,0.1971,0.1966,0.1966,0.1966,0.1966,0.1966,0.1966,0.2242,0.222,0.221,0.218,0.2165,0.2143,0.2131,0.2115,0.2099,0.207,0.2052,0.2038,0.2017,0.1992,0.1971,0.1965,0.1957,0.1957,0.195,0.1958,0.1958,0.1958,0.1963,0.1956,0.1956,0.1944,0.1944,0.1944]}]]